| time (UTC) | temp F | wind direction | speed MPH | gust MPH | rain 1hr in | rain 24hr in | rain mn in | humidity % | barometer mb |
| 20260508200028 | 50 | 200 | 9.0 | 11.0 | 0.00 | 0.00 | 0.00 | 37 | 868.0 |
| 20260508190051 | 49 | 221 | 6.0 | 14.0 | 0.00 | 0.00 | 0.00 | 40 | 867.9 |
| 20260508180052 | 51 | 178 | 3.0 | 8.0 | 0.00 | 0.00 | 0.00 | 48 | 868.2 |
| 20260508170052 | 48 | 152 | 2.0 | 8.0 | 0.00 | 0.00 | 0.00 | 51 | 867.6 |
| 20260508160132 | 46 | 58 | 1.0 | 5.0 | 0.00 | 0.00 | 0.00 | 52 | 867.2 |
| 20260508150056 | 47 | 76 | 2.0 | 5.0 | 0.00 | 0.00 | 0.00 | 46 | 867.0 |
| 20260508140038 | 45 | 19 | 2.0 | 3.0 | 0.00 | 0.00 | 0.00 | 42 | 866.9 |
| 20260508130053 | 45 | 250 | 1.0 | 3.0 | 0.00 | 0.00 | 0.00 | 28 | 866.6 |
| 20260508120048 | 45 | 269 | 5.0 | 8.0 | 0.00 | 0.00 | 0.00 | 25 | 866.7 |
| 20260508110045 | 44 | 255 | 7.0 | 10.0 | 0.00 | 0.00 | 0.00 | 29 | 866.7 |
| 20260508100045 | 46 | 229 | 2.0 | 7.0 | 0.00 | 0.00 | 0.00 | 30 | 866.8 |
| 20260508090045 | 46 | 221 | 4.0 | 12.0 | 0.00 | 0.00 | 0.00 | 29 | 866.9 |
| 20260508080055 | 46 | 271 | 5.0 | 12.0 | 0.00 | 0.00 | 0.00 | 24 | 867.1 |
| 20260508070055 | 46 | 260 | 0.0 | 2.0 | 0.00 | 0.00 | 0.00 | 44 | 867.2 |
| 20260508060300 | 47 | 296 | 2.0 | 7.0 | 0.00 | 0.00 | 0.00 | 44 | 867.2 |
| 20260508050053 | 47 | 257 | 10.0 | 17.0 | 0.00 | 0.00 | 0.00 | 44 | 867.3 |
| 20260508030043 | 48 | 299 | 5.0 | 10.0 | 0.00 | 0.00 | 0.00 | 52 | 866.8 |
| 20260508020111 | 51 | 272 | 3.0 | 8.0 | 0.00 | 0.00 | 0.00 | 45 | 866.8 |
| 20260508010112 | 54 | 310 | 1.0 | 9.0 | 0.00 | 0.00 | 0.00 | 50 | 866.7 |
| 20260508000116 | 56 | 274 | 2.0 | 10.0 | 0.00 | 0.00 | 0.00 | 35 | 866.9 |
| 20260507230059 | 55 | 44 | 0.0 | 5.0 | 0.00 | 0.00 | 0.00 | 44 | 866.8 |
| 20260507220101 | 58 | 9 | 2.0 | 8.0 | 0.00 | 0.00 | 0.00 | 40 | 867.2 |
| 20260507210130 | 53 | 58 | 4.0 | 12.0 | 0.00 | 0.00 | 0.00 | 44 | 867.4 |